Weather History for Casper, WY

Change the Weather History Date:

Saturday, November 23, 2013

  Actual Average Record
Temperature  
Mean Temperature 10 °F 30 °F  
Max Temperature 28 °F 40 °F 60 °F (2006)
Min Temperature -9 °F 19 °F -21 °F (1985)
Degree Days  
Heating Degree Days 55 36  
Month to date heating degree days 727 697  
Since 1 July heating degree days 1616 1596  
Cooling Degree Days 0 0  
Month to date cooling degree days 0 0  
Year to date cooling degree days 618 422  
Moisture  
Dew Point 2 °F    
Average Humidity 73    
Maximum Humidity 96    
Minimum Humidity 50    
Precipitation  
Precipitation 0.00 in 0.02 in 0.29 in (1967)
Month to date precipitation 0.24 0.62  
Year to date precipitation 13.94 11.89  
Snow  
Snow 0.00 in 0.30 in - ()
Month to date snowfall 3.6 7.8  
Since 1 July snowfall 24.8 17.0  
Since 1 September snowfall 24.8 17.0  
Snow Depth -    
Sea Level Pressure  
Sea Level Pressure 30.69 in    
Wind  
Wind Speed 5 mph (WSW)    
Max Wind Speed 14 mph    
Max Gust Speed 16 mph    
Visibility 10 miles    
Events      
T = Trace of Precipitation, MM = Missing Value Source: NWS Daily Summary

Daily Weather History Graph

Daily Weather History Graph

Search for Another Location

Airport:

Trip Planner

Search our weather history database for the weather conditions in past years. The results will help you decide how hot, cold, wet, or windy it might be!

Date:

Astronomy

Nov. 23, 2013 Rise Set
Actual Time 7:08 AM MST 4:36 PM MST
Civil Twilight 6:37 AM MST 5:07 PM MST
Nautical Twilight 6:02 AM MST 5:42 PM MST
Astronomical Twilight 5:28 AM MST 6:15 PM MST
Moon 10:10 PM MST (11/23) 11:23 AM MST (11/23)
Length of Visible Light 10h 30m
Length of Day
9h 27m
Waning Gibbous, 69% of the Moon is Illuminated
Nov 23
Waning Gibbous
Nov 25
Last Quarter
Dec 2
New
Dec 9
First Quarter
Dec 17
Full

Hourly Weather History & Observations

Time (MST) Temp. Windchill Dew Point Humidity Pressure Visibility Wind Dir Wind Speed Gust Speed Precip Events Conditions
12:53 AM 3.0 °F -11.5 °F -2.0 °F 80% 30.79 in 10.0 mi West 9.2 mph - N/A   Clear
1:53 AM 5.0 °F -10.0 °F -0.0 °F 80% 30.76 in 10.0 mi West 10.4 mph - N/A   Clear
2:53 AM 1.9 °F -5.6 °F -2.9 °F 80% 30.80 in 10.0 mi WNW 3.5 mph - N/A   Clear
3:53 AM -2.0 °F -16.6 °F -7.1 °F 79% 30.81 in 10.0 mi SSW 8.1 mph - N/A   Clear
4:53 AM -5.1 °F - -9.0 °F 83% 30.87 in 10.0 mi Calm Calm - N/A   Clear
5:53 AM -7.1 °F -15.9 °F -11.0 °F 83% 30.89 in 10.0 mi WSW 3.5 mph - N/A   Clear
6:53 AM -0.0 °F - -6.0 °F 76% 30.88 in 10.0 mi North - - N/A   Clear
7:53 AM 1.9 °F -12.9 °F -2.9 °F 80% 30.88 in 10.0 mi SSW 9.2 mph - N/A   Clear
8:53 AM 9.0 °F -4.2 °F 5.0 °F 84% 30.82 in 10.0 mi SW 9.2 mph - N/A   Clear
9:53 AM 14.0 °F 0.5 °F 5.0 °F 67% 30.82 in 10.0 mi SW 11.5 mph - N/A   Clear
10:53 AM 17.1 °F 10.0 °F 7.0 °F 65% 30.78 in 10.0 mi SSW 4.6 mph - N/A   Clear
11:53 AM 21.9 °F - 7.0 °F 53% 30.73 in 10.0 mi North - - N/A   Clear
12:53 PM 25.0 °F 20.7 °F 8.1 °F 49% 30.65 in 10.0 mi SSW 3.5 mph - N/A   Clear
1:53 PM 27.0 °F 23.0 °F 10.0 °F 49% 30.61 in 10.0 mi ESE 3.5 mph - N/A   Clear
2:53 PM 27.0 °F - 12.0 °F 53% 30.60 in 10.0 mi North - - N/A   Clear
3:53 PM 23.0 °F - 12.0 °F 63% 30.61 in 10.0 mi North - - N/A   Clear
4:53 PM 14.0 °F 8.2 °F 9.0 °F 80% 30.66 in 10.0 mi NE 3.5 mph - N/A   Clear
5:53 PM 7.0 °F 0.1 °F 3.0 °F 84% 30.69 in 10.0 mi SSW 3.5 mph - N/A   Clear
6:53 PM 6.1 °F - 1.9 °F 83% 30.65 in 10.0 mi Calm Calm - N/A   Clear
7:53 PM 3.9 °F - 1.0 °F 88% 30.62 in 10.0 mi Calm Calm - N/A   Clear
8:53 PM 3.0 °F -6.4 °F -2.0 °F 80% 30.58 in 10.0 mi West 4.6 mph - N/A   Clear
9:45 PM 5.0 °F -4.1 °F 3.2 °F 92% 30.28 in 10.0 mi NW 4.6 mph - N/A   Partly Cloudy
9:53 PM 3.9 °F -6.9 °F 1.0 °F 88% 30.53 in 10.0 mi NNW 5.8 mph - N/A   Clear
10:53 PM 6.1 °F -2.8 °F 1.9 °F 83% 30.48 in 9.0 mi SSW 4.6 mph - N/A   Clear
11:53 PM 6.1 °F -5.6 °F 1.9 °F 83% 30.44 in 10.0 mi WNW 6.9 mph - N/A   Clear